Weather History for KLCG - March, 2013

Change the Weather History Date:

Tuesday, March 5, 2013

  Actual Average (KOFK) Record (KOFK)
Temperature  
Mean Temperature 24 °F 33 °F  
Max Temperature 28 °F 44 °F 75 °F (1937)
Min Temperature 21 °F 23 °F -13 °F (1960)
Degree Days  
Heating Degree Days 40 32  
Month to date heating degree days 164  
Since 1 July heating degree days 5257  
Cooling Degree Days 0 0  
Month to date cooling degree days 0  
Year to date cooling degree days 0  
Moisture  
Dew Point 19 °F    
Average Humidity 76    
Maximum Humidity 84    
Minimum Humidity 69    
Precipitation  
Precipitation 0.00 in 0.04 in 1.00 in (1933)
Month to date precipitation 0.19  
Year to date precipitation 1.54  
Snow  
Snow 0.00 in 0.20 in - ()
Month to date snowfall 0.9  
Since 1 July snowfall 23.7  
Snow Depth -    
Sea Level Pressure  
Sea Level Pressure 30.19 in    
Wind  
Wind Speed 21 mph (NW)    
Max Wind Speed 34 mph    
Max Gust Speed 43 mph    
Visibility 9 miles    
Events Snow    
T = Trace of Precipitation, MM = Missing Value Source: NWS Daily Summary

Daily Weather History Graph

Daily Weather History Graph

Search for Another Location

Airport or City:

Trip Planner

Search our weather history database for the weather conditions in past years. The results will help you decide how hot, cold, wet, or windy it might be!

Date:

Astronomy

Mar. 05, 2013 Rise Set
Actual Time 6:56 AM CST 6:23 PM CST
Civil Twilight 6:28 AM CST 6:51 PM CST
Nautical Twilight 5:55 AM CST 7:23 PM CST
Astronomical Twilight 5:23 AM CST 7:56 PM CST
Moon 2:14 AM CST (3/5) 11:58 AM CST (3/5)
Length of Visible Light 12h 22m
Length of Day
11h 26m
Last Quarter, 40% of the Moon is Illuminated
Mar 5
Last Quarter
Mar 11
New
Mar 19
First Quarter
Mar 27
Full
Apr 2
Last Quarter

Hourly Weather History & Observations

Time (CST) Temp. Windchill Dew Point Humidity Pressure Visibility Wind Dir Wind Speed Gust Speed Precip Events Conditions
12:15 AM 27.0 °F 15.2 °F 18.1 °F 69% 30.01 in 10.0 mi NW 15.0 mph 28.8 mph N/A   Clear
12:35 AM 26.6 °F 13.8 °F 18.1 °F 70% 30.01 in 10.0 mi WNW 17.3 mph 28.8 mph N/A   Clear
12:55 AM 26.4 °F 12.8 °F 17.6 °F 69% 30.02 in 10.0 mi WNW 19.6 mph 29.9 mph N/A   Clear
1:15 AM 25.7 °F 10.5 °F 16.7 °F 69% 30.02 in 10.0 mi WNW 24.2 mph 29.9 mph N/A   Clear
1:35 AM 25.3 °F 11.0 °F 16.3 °F 69% 30.03 in 10.0 mi WNW 20.7 mph 27.6 mph N/A   Clear
1:55 AM 24.6 °F 11.3 °F 16.0 °F 70% 30.03 in 10.0 mi WNW 17.3 mph 25.3 mph N/A   Clear
2:15 AM 24.3 °F 11.7 °F 15.4 °F 69% 30.03 in 10.0 mi WNW 15.0 mph 24.2 mph N/A   Clear
2:35 AM 23.7 °F 10.1 °F 15.4 °F 71% 30.03 in 10.0 mi WNW 17.3 mph 21.9 mph N/A   Clear
2:55 AM 23.5 °F 9.9 °F 15.4 °F 71% 30.03 in 10.0 mi WNW 17.3 mph 20.7 mph N/A   Clear
3:15 AM 23.9 °F 10.8 °F 15.4 °F 70% 30.03 in 10.0 mi WNW 16.1 mph 25.3 mph N/A   Mostly Cloudy
3:35 AM 23.9 °F 11.2 °F 15.8 °F 71% 30.03 in 10.0 mi WNW 15.0 mph 23.0 mph N/A   Overcast
3:55 AM 24.3 °F 9.6 °F 16.3 °F 72% 30.03 in 10.0 mi WNW 20.7 mph 25.3 mph N/A   Overcast
4:15 AM 24.8 °F 10.7 °F 17.1 °F 72% 30.03 in 10.0 mi WNW 19.6 mph 31.1 mph N/A   Overcast
4:35 AM 24.6 °F 10.5 °F 18.0 °F 76% 30.03 in 10.0 mi WNW 19.6 mph 27.6 mph N/A   Overcast
4:55 AM 24.8 °F 9.0 °F 18.3 °F 76% 30.03 in 10.0 mi WNW 25.3 mph 31.1 mph N/A   Overcast
5:15 AM 25.0 °F 10.2 °F 18.5 °F 76% 30.04 in 10.0 mi WNW 21.9 mph 31.1 mph N/A   Overcast
5:35 AM 25.2 °F 9.2 °F 18.5 °F 76% 30.05 in 10.0 mi WNW 26.5 mph 29.9 mph N/A   Overcast
5:55 AM 25.2 °F 9.8 °F 19.0 °F 78% 30.05 in 10.0 mi WNW 24.2 mph 36.8 mph N/A Snow Light Snow
6:15 AM 25.2 °F 10.4 °F 19.2 °F 78% 30.05 in 10.0 mi WNW 21.9 mph 39.1 mph N/A   Overcast
6:35 AM 25.5 °F 9.1 °F 19.6 °F 78% 30.05 in 10.0 mi NW 28.8 mph 36.8 mph N/A   Overcast
7:15 AM 25.7 °F 9.6 °F 20.7 °F 81% 30.07 in 4.0 mi NW 27.6 mph 36.8 mph N/A Snow Light Snow
7:35 AM 25.7 °F 10.5 °F 20.8 °F 82% 30.08 in 3.0 mi NW 24.2 mph 34.5 mph N/A Snow Light Snow
7:55 AM 25.7 °F 9.6 °F 20.8 °F 82% 30.09 in 5.0 mi NW 27.6 mph 36.8 mph N/A Snow Light Snow
8:15 AM 25.7 °F 10.5 °F 21.2 °F 83% 30.10 in 4.0 mi NW 24.2 mph 31.1 mph N/A Snow Light Snow
8:35 AM 25.7 °F 10.2 °F 21.4 °F 84% 30.10 in 3.0 mi NW 25.3 mph 35.7 mph N/A Snow Light Snow
8:55 AM 26.1 °F 11.0 °F 21.4 °F 82% 30.11 in 4.0 mi NW 24.2 mph 36.8 mph N/A Snow Light Snow
9:15 AM 26.1 °F 10.4 °F 21.6 °F 83% 30.12 in 7.0 mi NW 26.5 mph 42.6 mph N/A   Overcast
9:35 AM 26.6 °F 11.1 °F 21.9 °F 82% 30.13 in 10.0 mi NW 26.5 mph 38.0 mph N/A   Overcast
9:55 AM 26.4 °F 10.3 °F 21.2 °F 81% 30.15 in 5.0 mi NW 28.8 mph 42.6 mph N/A Snow Light Snow
10:15 AM 26.2 °F 10.6 °F 21.0 °F 81% 30.15 in 2.5 mi NW 26.5 mph 41.4 mph N/A Snow Light Snow
10:35 AM 26.2 °F 9.6 °F 21.0 °F 81% 30.16 in 2.0 mi NNW 31.1 mph 41.4 mph N/A Snow Light Snow
10:55 AM 26.2 °F 10.3 °F 21.2 °F 81% 30.17 in 2.5 mi NNW 27.6 mph 39.1 mph N/A Snow Light Snow
11:15 AM 26.2 °F 8.8 °F 20.3 °F 78% 30.18 in 4.0 mi NNW 34.5 mph 40.3 mph N/A Snow Light Snow
11:35 AM 26.4 °F 10.1 °F 20.3 °F 78% 30.19 in 7.0 mi NNW 29.9 mph 42.6 mph N/A Snow Light Snow
11:55 AM 26.6 °F 10.8 °F 20.3 °F 77% 30.20 in 7.0 mi NNW 27.6 mph 38.0 mph N/A   Overcast
12:15 PM 26.8 °F 11.4 °F 20.1 °F 76% 30.21 in 10.0 mi NNW 26.5 mph 35.7 mph N/A   Overcast
12:35 PM 27.1 °F 10.8 °F 20.5 °F 76% 30.21 in 7.0 mi NNW 31.1 mph 40.3 mph N/A   Overcast
12:55 PM 27.1 °F 10.5 °F 18.5 °F 70% 30.21 in 10.0 mi NNW 32.2 mph 39.1 mph N/A   Overcast
1:15 PM 27.1 °F 11.6 °F 19.2 °F 72% 30.22 in 10.0 mi NNW 27.6 mph 38.0 mph N/A   Overcast
1:35 PM 27.0 °F 11.3 °F 19.2 °F 73% 30.22 in 10.0 mi NNW 27.6 mph 38.0 mph N/A   Overcast
1:55 PM 27.0 °F 11.0 °F 19.4 °F 73% 30.22 in 10.0 mi NNW 28.8 mph 38.0 mph N/A   Overcast
2:15 PM 27.5 °F 13.2 °F 20.3 °F 74% 30.23 in 10.0 mi NNW 23.0 mph 35.7 mph N/A   Overcast
2:35 PM 28.0 °F 13.0 °F 20.3 °F 73% 30.24 in 10.0 mi NNW 26.5 mph 33.4 mph N/A   Overcast
2:55 PM 27.7 °F 13.5 °F 20.1 °F 73% 30.25 in 10.0 mi NNW 23.0 mph 29.9 mph N/A   Overcast
3:15 PM 27.1 °F 12.4 °F 19.0 °F 72% 30.26 in 10.0 mi NNW 24.2 mph 34.5 mph N/A   Overcast
3:35 PM 27.5 °F 13.5 °F 19.4 °F 72% 30.27 in 10.0 mi NW 21.9 mph 31.1 mph N/A   Overcast
3:55 PM 27.1 °F 13.1 °F 19.4 °F 73% 30.27 in 10.0 mi NNW 21.9 mph 31.1 mph N/A   Overcast
4:15 PM 28.0 °F 14.3 °F 19.4 °F 70% 30.28 in 10.0 mi NNW 21.9 mph 33.4 mph N/A   Overcast
4:35 PM 27.5 °F 12.9 °F 18.9 °F 70% 30.28 in 10.0 mi NNW 24.2 mph 35.7 mph N/A   Overcast
4:55 PM 26.8 °F 13.3 °F 18.9 °F 72% 30.29 in 10.0 mi NNW 19.6 mph 27.6 mph N/A   Mostly Cloudy
5:15 PM 25.9 °F 11.7 °F 19.2 °F 76% 30.30 in 10.0 mi NNW 20.7 mph 27.6 mph N/A   Scattered Clouds
5:35 PM 25.5 °F 10.9 °F 18.5 °F 75% 30.31 in 10.0 mi NNW 21.9 mph 28.8 mph N/A   Scattered Clouds
5:55 PM 24.8 °F 10.7 °F 17.6 °F 74% 30.31 in 10.0 mi NNW 19.6 mph 28.8 mph N/A   Mostly Cloudy
6:15 PM 24.4 °F 11.9 °F 18.1 °F 77% 30.31 in 10.0 mi NNW 15.0 mph 23.0 mph N/A   Mostly Cloudy
6:35 PM 24.4 °F 11.0 °F 17.8 °F 76% 30.32 in 10.0 mi North 17.3 mph 27.6 mph N/A   Mostly Cloudy
6:55 PM 23.5 °F 9.4 °F 17.6 °F 78% 30.33 in 10.0 mi NNW 18.4 mph 23.0 mph N/A   Overcast
7:15 PM 23.7 °F 11.0 °F 18.0 °F 79% 30.33 in 10.0 mi NNW 15.0 mph - N/A   Overcast
7:35 PM 23.5 °F 10.3 °F 17.6 °F 78% 30.34 in 10.0 mi NNW 16.1 mph 24.2 mph N/A   Overcast
7:55 PM 23.7 °F 10.1 °F 17.6 °F 77% 30.34 in 10.0 mi NNW 17.3 mph 23.0 mph N/A   Overcast
8:15 PM 23.5 °F 9.9 °F 17.6 °F 78% 30.34 in 10.0 mi NNW 17.3 mph 21.9 mph N/A   Overcast
8:35 PM 23.4 °F 11.6 °F 18.0 °F 80% 30.35 in 10.0 mi NNW 12.7 mph - N/A   Overcast
8:55 PM 23.2 °F 10.8 °F 18.1 °F 81% 30.34 in 10.0 mi NNW 13.8 mph 19.6 mph N/A   Overcast
9:15 PM 23.0 °F 11.7 °F 17.2 °F 79% 30.36 in 10.0 mi North 11.5 mph 18.4 mph N/A   Overcast
9:35 PM 22.8 °F 8.9 °F 17.1 °F 79% 30.35 in 10.0 mi North 17.3 mph 21.9 mph N/A   Overcast
9:55 PM 22.3 °F 7.8 °F 16.9 °F 80% 30.36 in 10.0 mi North 18.4 mph 21.9 mph N/A   Overcast
10:15 PM 21.6 °F 8.8 °F 16.7 °F 82% 30.37 in 10.0 mi NNW 13.8 mph - N/A   Overcast
10:35 PM 21.7 °F 8.0 °F 16.7 °F 81% 30.37 in 10.0 mi NNW 16.1 mph - N/A   Overcast
10:55 PM 21.7 °F 11.5 °F 16.7 °F 81% 30.38 in 10.0 mi NNW 9.2 mph - N/A   Overcast
11:15 PM 21.7 °F 11.5 °F 16.7 °F 81% 30.38 in 10.0 mi North 9.2 mph - N/A   Overcast
11:35 PM 21.9 °F 9.8 °F 17.4 °F 83% 30.38 in 10.0 mi NNW 12.7 mph - N/A   Overcast
11:55 PM 22.1 °F 11.3 °F 17.4 °F 82% 30.39 in 10.0 mi NNW 10.4 mph - N/A   Overcast